APG788 RPMD-RPVM

Flight info

Callsign APG788
Flight time N/A
Altitude 28000
Route JOFER3R JOFER W8 BOHOL BOHOL3P
Aircraft B738/M-SDE2E3FGHIRWXY/LB1

Departure

Time N/A
Airport Francisco Bangoy International Airport (RPMD)

Arrival

Time 2026-05-07 01:52
Airport Mactan Cebu International Airport (RPVM)
Time Latitude Longitude Altitude Speed Heading
2026-05-07 01:26 8.55774 124.91099 28043 ft 397 kts 334°
2026-05-07 01:26 8.58255 124.89804 28037 ft 397 kts 334°
2026-05-07 01:27 8.63169 124.87238 28038 ft 397 kts 334°
2026-05-07 01:27 8.68082 124.84670 28047 ft 397 kts 334°
2026-05-07 01:28 8.72977 124.82111 28008 ft 390 kts 334°
2026-05-07 01:28 8.75340 124.80875 27638 ft 388 kts 335°
2026-05-07 01:28 8.77712 124.79635 27427 ft 381 kts 335°
2026-05-07 01:28 8.80057 124.78410 27063 ft 379 kts 335°
2026-05-07 01:29 8.82397 124.77189 26654 ft 378 kts 335°
2026-05-07 01:29 8.84724 124.75976 26285 ft 375 kts 335°
2026-05-07 01:29 8.86289 124.75160 26036 ft 374 kts 335°
2026-05-07 01:29 8.89349 124.73565 25540 ft 372 kts 335°
2026-05-07 01:30 8.91645 124.72367 25155 ft 371 kts 335°
2026-05-07 01:30 8.93939 124.71170 24793 ft 370 kts 335°
2026-05-07 01:30 8.96226 124.69977 24415 ft 369 kts 336°
2026-05-07 01:30 8.98504 124.68787 24052 ft 369 kts 336°
2026-05-07 01:31 9.00781 124.67599 23683 ft 368 kts 336°
2026-05-07 01:31 9.03055 124.66412 23258 ft 368 kts 336°
2026-05-07 01:31 9.05337 124.65219 22755 ft 369 kts 336°
2026-05-07 01:31 9.07608 124.64029 22387 ft 367 kts 336°
2026-05-07 01:32 9.09870 124.62843 22000 ft 365 kts 336°
2026-05-07 01:32 9.12117 124.61665 21637 ft 363 kts 336°
2026-05-07 01:32 9.14349 124.60495 21284 ft 360 kts 336°
2026-05-07 01:32 9.16570 124.59330 20924 ft 358 kts 336°
2026-05-07 01:33 9.18778 124.58172 20572 ft 357 kts 336°
2026-05-07 01:33 9.20976 124.57020 20221 ft 355 kts 336°
2026-05-07 01:33 9.23165 124.55872 19868 ft 354 kts 336°
2026-05-07 01:33 9.25347 124.54727 19504 ft 353 kts 336°
2026-05-07 01:34 9.27524 124.53586 19159 ft 352 kts 336°
2026-05-07 01:34 9.29694 124.52447 18799 ft 351 kts 336°
2026-05-07 01:34 9.31862 124.51310 18447 ft 351 kts 336°
2026-05-07 01:34 9.34027 124.50174 18080 ft 350 kts 336°
2026-05-07 01:35 9.36188 124.49040 17708 ft 349 kts 336°
2026-05-07 01:35 9.38336 124.47911 17343 ft 347 kts 336°
2026-05-07 01:35 9.40474 124.46788 16991 ft 345 kts 336°
2026-05-07 01:35 9.42596 124.45674 16657 ft 343 kts 336°
2026-05-07 01:36 9.44705 124.44566 16305 ft 341 kts 336°
2026-05-07 01:36 9.46803 124.43464 15965 ft 339 kts 336°
2026-05-07 01:36 9.48893 124.42366 15643 ft 337 kts 336°
2026-05-07 01:36 9.50969 124.41276 15293 ft 336 kts 336°
2026-05-07 01:37 9.53015 124.40201 14948 ft 335 kts 336°
2026-05-07 01:37 9.55078 124.39117 14607 ft 334 kts 336°
2026-05-07 01:37 9.57126 124.38014 14260 ft 332 kts 331°
2026-05-07 01:37 9.58928 124.36551 13875 ft 332 kts 320°
2026-05-07 01:38 9.60592 124.34930 13496 ft 332 kts 319°
2026-05-07 01:38 9.62239 124.33298 13141 ft 331 kts 319°
2026-05-07 01:38 9.63884 124.31677 12804 ft 329 kts 319°
2026-05-07 01:38 9.65528 124.30074 12473 ft 327 kts 319°
2026-05-07 01:39 9.67171 124.28484 12179 ft 325 kts 319°
2026-05-07 01:39 9.68803 124.26913 11876 ft 323 kts 320°
2026-05-07 01:39 9.70431 124.25351 11568 ft 322 kts 320°
2026-05-07 01:39 9.72053 124.23798 11252 ft 321 kts 320°
2026-05-07 01:40 9.73663 124.22255 10923 ft 315 kts 320°
2026-05-07 01:40 9.75240 124.20743 10613 ft 308 kts 320°
2026-05-07 01:40 9.76793 124.19256 10317 ft 307 kts 320°
2026-05-07 01:40 9.78340 124.17776 10102 ft 303 kts 320°
2026-05-07 01:41 9.79862 124.16319 9845 ft 301 kts 320°
2026-05-07 01:41 9.81388 124.14858 9557 ft 300 kts 320°
2026-05-07 01:41 9.82908 124.13407 9225 ft 300 kts 320°
2026-05-07 01:41 9.84422 124.11962 8936 ft 298 kts 320°
2026-05-07 01:42 9.85932 124.10520 8663 ft 297 kts 320°
2026-05-07 01:42 9.87451 124.09082 8326 ft 302 kts 320°
2026-05-07 01:42 9.88966 124.07636 8050 ft 302 kts 320°
2026-05-07 01:42 9.90487 124.06177 7729 ft 300 kts 320°
2026-05-07 01:43 9.91994 124.04733 7421 ft 295 kts 320°
2026-05-07 01:43 9.93474 124.03315 7160 ft 291 kts 320°
2026-05-07 01:43 9.94942 124.01922 6845 ft 291 kts 320°
2026-05-07 01:43 9.96415 124.00511 6553 ft 289 kts 320°
2026-05-07 01:44 9.97872 123.99108 6225 ft 289 kts 320°
2026-05-07 01:44 9.99319 123.97722 5918 ft 283 kts 320°
2026-05-07 01:44 10.00747 123.96357 5553 ft 281 kts 320°
2026-05-07 01:44 10.02160 123.95005 5264 ft 277 kts 320°
2026-05-07 01:45 10.03544 123.93682 5037 ft 271 kts 320°
2026-05-07 01:45 10.04919 123.92371 4809 ft 273 kts 320°
2026-05-07 01:45 10.06297 123.91046 4550 ft 272 kts 320°
2026-05-07 01:45 10.07657 123.89740 4417 ft 266 kts 319°
2026-05-07 01:46 10.08950 123.88439 4341 ft 258 kts 318°
2026-05-07 01:46 10.10190 123.87171 4258 ft 246 kts 318°
2026-05-07 01:46 10.11362 123.85974 4151 ft 233 kts 319°
2026-05-07 01:46 10.12478 123.84835 4037 ft 222 kts 319°
2026-05-07 01:47 10.13564 123.83759 3858 ft 215 kts 326°
2026-05-07 01:47 10.14888 123.83244 3655 ft 201 kts
2026-05-07 01:47 10.16109 123.83740 3465 ft 187 kts 39°
2026-05-07 01:47 10.17130 123.84524 3272 ft 181 kts 40°
2026-05-07 01:48 10.18086 123.85320 3048 ft 175 kts 44°
2026-05-07 01:48 10.18968 123.86142 2832 ft 168 kts 46°
2026-05-07 01:48 10.19805 123.86960 2666 ft 167 kts 47°
2026-05-07 01:48 10.20636 123.87786 2534 ft 167 kts 45°
2026-05-07 01:49 10.21464 123.88614 2328 ft 165 kts 46°
2026-05-07 01:49 10.22278 123.89429 2088 ft 163 kts 45°
2026-05-07 01:49 10.23081 123.90236 1901 ft 167 kts 46°
2026-05-07 01:49 10.23921 123.91077 1687 ft 171 kts 44°
2026-05-07 01:50 10.24776 123.91891 1444 ft 160 kts 48°
2026-05-07 01:50 10.25531 123.92694 1237 ft 151 kts 45°
2026-05-07 01:50 10.26252 123.93423 1066 ft 140 kts 45°
2026-05-07 01:50 10.26944 123.94116 872 ft 143 kts 45°
2026-05-07 01:51 10.27638 123.94802 617 ft 139 kts 43°
2026-05-07 01:51 10.28308 123.95477 441 ft 135 kts 42°
2026-05-07 01:51 10.28968 123.96149 303 ft 134 kts 42°
2026-05-07 01:51 10.29624 123.96807 126 ft 132 kts 43°
2026-05-07 01:52 10.30255 123.97441 39 ft 116 kts 43°
2026-05-07 01:52 10.30747 123.97934 34 ft 78 kts 45°
2026-05-07 01:52 10.31037 123.98222 35 ft 39 kts 40°
2026-05-07 01:52 10.31212 123.98321 37 ft 23 kts 20°
2026-05-07 01:53 10.31353 123.98338 35 ft 18 kts 343°
2026-05-07 01:53 10.31430 123.98278 36 ft 9 kts 314°
2026-05-07 01:53 10.31467 123.98239 36 ft 7 kts 315°
2026-05-07 01:53 10.31499 123.98207 36 ft 6 kts 315°
2026-05-07 01:54 10.31530 123.98175 36 ft 6 kts 315°
2026-05-07 01:54 10.31560 123.98145 36 ft 6 kts 311°
2026-05-07 01:54 10.31563 123.98103 36 ft 6 kts 248°
2026-05-07 01:54 10.31530 123.98065 36 ft 9 kts 224°
2026-05-07 01:55 10.31483 123.98018 36 ft 10 kts 225°
2026-05-07 01:55 10.31459 123.97971 36 ft 7 kts 288°
2026-05-07 01:55 10.31489 123.97935 36 ft 4 kts 316°
2026-05-07 01:55 10.31503 123.97920 36 ft 1 kts 314°
2026-05-07 01:56 10.31505 123.97919 36 ft 0 kts 314°